Location: Warner Observatory
(35.1353°N, 89.5455°W)
Time: 10:00:02
(UTC-06:00)

Amateur Radio Satellites - All Passes

Search period start: 24 November 2014 09:30
Search period end: 25 November 2014 09:30
Location: Warner Observatory, 35.1353°N, 89.5455°W

Satellite Date Start Highest point End Downlink Frequencies (MHz)
Time Altitude Azimuth
SEEDS 24 Nov 09:29:56 09:34:00 44° 286° (WNW) 09:38:04 437.485
POLYITAN 1 24 Nov 09:31:19 09:35:01 29° 71° (ENE) 09:38:42 437.675
UWE-3 24 Nov 09:32:32 09:36:18 30° 98° (E) 09:40:08 435.000/436.395/437.385
QB50P2 24 Nov 09:34:03 09:37:49 31° 72° (ENE) 09:41:36 145.880/145.840
CINEMA 3 24 Nov 09:40:22 09:44:35 76° 102° (ESE) 09:48:56 145.822/145.860
DUCHIFAT 1 24 Nov 09:41:13 09:45:09 37° 73° (ENE) 09:49:05 145.980
BRITE-PL 24 Nov 09:41:51 09:45:28 30° 288° (WNW) 09:49:06 437.365/2234.400
DX 1 24 Nov 09:45:02 09:49:24 81° 103° (ESE) 09:53:43 434.975-435.025
TIGRISAT 24 Nov 09:46:21 09:50:34 64° 76° (ENE) 09:54:47 435.000
AAUSAT CUBESAT 2 24 Nov 09:50:58 09:54:48 34° 287° (WNW) 09:58:37 437.432
HO-68 24 Nov 09:51:10 09:57:54 45° 292° (WNW) 10:04:36 435.675
CANX-2 24 Nov 09:56:07 09:59:05 19° 291° (WNW) 10:02:04 2200.000
UNISAT 6 24 Nov 09:58:50 10:03:07 87° 257° (WSW) 10:07:24 437.425
NANOSAT C BR1 24 Nov 09:59:58 10:04:12 65° 76° (ENE) 10:08:25 145.865
ESTCUBE 1 24 Nov 10:00:20 10:01:48 11° 92° (E) 10:03:16 437.505/2401.250
COMPASS 1 24 Nov 10:05:25 10:08:37 21° 290° (WNW) 10:11:49 437.405
DELFI C3 24 Nov 10:05:48 10:09:51 55° 285° (WNW) 10:13:53 145.870
VELOX 1 24 Nov 10:06:24 10:10:33 39° 99° (E) 10:14:39 145.980
QB50P1 24 Nov 10:09:32 10:13:49 85° 77° (ENE) 10:18:05 145.935-145.965
HUMSAT D 24 Nov 10:09:45 10:13:42 41° 99° (E) 10:17:41 437.325/437.525
ZACube-1 24 Nov 10:11:40 10:15:55 79° 102° (ESE) 10:20:14 437.345
50 SAT 24 Nov 10:11:44 10:15:29 35° 98° (E) 10:19:14 437.505
ANTELSAT 24 Nov 10:27:43 10:31:43 38° 261° (W) 10:35:43 437.575/2403.000
DOVE 4 24 Nov 10:28:41 10:31:26 17° 291° (WNW) 10:34:15 437.250
BUGSAT 1 24 Nov 10:30:21 10:34:35 65° 259° (W) 10:38:49 437.445
AISAT 24 Nov 10:31:13 10:35:40 81° 103° (ESE) 10:40:04 437.250
POPSAT HIP 1 24 Nov 10:34:17 10:38:24 47° 260° (W) 10:42:31 437.405
FUNcube-1 24 Nov 10:47:34 10:51:29 38° 287° (WNW) 10:55:27 145.935
UKube-1 24 Nov 10:48:32 10:51:39 20° 292° (WNW) 10:54:45 .
CUBEBUG 1 24 Nov 10:51:31 10:55:41 44° 99° (E) 10:59:49 437.445
Oscar 11 24 Nov 11:02:35 11:04:17 12° 294° (WNW) 11:05:59 145.826/435.025
CUBEBUG 2 24 Nov 11:05:30 11:08:23 18° 291° (WNW) 11:11:19 437.445
POLYITAN 1 24 Nov 11:07:53 11:10:57 19° 265° (W) 11:14:02 437.675
UWE-3 24 Nov 11:09:41 11:12:38 19° 291° (WNW) 11:15:38 435.000/436.395/437.385
QB50P2 24 Nov 11:10:51 11:13:46 18° 265° (W) 11:16:42 145.880/145.840
DUCHIFAT 1 24 Nov 11:18:41 11:21:08 15° 266° (W) 11:23:35 145.980
Oscar 19 24 Nov 11:21:08 11:22:48 12° 62° (ENE) 11:24:27 437.125/150
ESTCUBE 1 24 Nov 11:34:32 11:38:58 55° 286° (WNW) 11:43:22 437.505/2401.250
VELOX 1 24 Nov 11:44:04 11:46:47 16° 293° (WNW) 11:49:30 145.980
HUMSAT D 24 Nov 11:47:05 11:49:09 14° 293° (WNW) 11:51:14 437.325/437.525
50 SAT 24 Nov 11:48:11 11:50:29 15° 292° (WNW) 11:52:49 437.505
YUBILEINY 24 Nov 11:58:04 12:02:04 14° 64° (ENE) 12:06:02 435.215
ITAMSAT 1 24 Nov 12:09:07 12:11:39 14° 63° (ENE) 12:14:11 435.822/435.867
ITUPSAT 1 24 Nov 12:16:34 12:18:37 13° 92° (E) 12:20:38 437.325
TISAT 1 24 Nov 12:19:01 12:23:12 70° 284° (WNW) 12:27:22 437.305
SPROUT 24 Nov 12:22:59 12:27:16 73° 284° (WNW) 12:31:31 437.525
SWISSCUBE 24 Nov 12:27:06 12:30:28 19° 94° (E) 12:33:49 437.505
CUBEBUG 1 24 Nov 12:29:22 12:31:39 14° 294° (WNW) 12:33:55 437.445
AUBIESAT-1 24 Nov 12:29:40 12:33:37 24° 99° (E) 12:37:28 437.475
Gurwin Techsat 1B 24 Nov 12:31:03 12:33:10 12° 62° (ENE) 12:35:17 435.225
M-CUBED/EXP-1 PRIME 24 Nov 12:33:20 12:37:36 29° 100° (E) 12:41:46 437.505
SO-50 24 Nov 12:36:55 12:41:34 42° 56° (NE) 12:46:13 436.795
Oscar 19 24 Nov 12:56:21 13:01:27 75° 258° (WSW) 13:06:34 437.125/150
CUSAT 1 24 Nov 12:57:03 13:00:01 86° 93° (E) 13:02:38 437.405
BEESAT 24 Nov 12:57:42 13:02:09 38° 98° (E) 13:06:34 436.000
DANDE 24 Nov 13:14:56 13:18:00 58° 279° (W) 13:20:38 436.750
ITAMSAT 1 24 Nov 13:45:21 13:50:32 66° 258° (WSW) 13:55:44 435.822/435.867
YUBILEINY 24 Nov 13:51:27 14:00:13 82° 84° (E) 14:08:53 435.215
ITUPSAT 1 24 Nov 13:52:06 13:56:48 56° 286° (WNW) 14:01:28 437.325
KKS-1 24 Nov 13:53:24 13:57:14 28° 97° (E) 14:01:04 437.445
SWISSCUBE 24 Nov 14:04:00 14:08:25 37° 289° (WNW) 14:12:48 437.505
AUBIESAT-1 24 Nov 14:04:09 14:08:34 34° 294° (WNW) 14:12:53 437.475
HORYU 2 24 Nov 14:04:23 14:08:33 42° 73° (ENE) 14:12:45 437.375
PHONESAT 2.4 24 Nov 14:06:48 14:09:51 24° 145° (SE) 14:12:55 2401.200-2431.200
Gurwin Techsat 1B 24 Nov 14:07:09 14:12:26 74° 258° (WSW) 14:17:46 435.225
M-CUBED/EXP-1 PRIME 24 Nov 14:08:17 14:12:30 29° 295° (WNW) 14:16:38 437.505
RS-15 24 Nov 14:15:53 14:23:06 20° 101° (E) 14:30:13 29.354- 29.394
SO-50 24 Nov 14:18:17 14:21:49 20° 251° (WSW) 14:25:19 436.795
VERMONT LUNAR 24 Nov 14:24:34 14:28:03 47° 151° (SSE) 14:31:33 437.305
AO-7 24 Nov 14:26:08 14:33:36 40° 63° (ENE) 14:41:07 29.400- 29.500
BEESAT 24 Nov 14:36:18 14:39:42 20° 293° (WNW) 14:43:05 436.000
STARS 24 Nov 14:52:25 14:56:49 86° 284° (WNW) 15:01:13 437.465
MaSat-1 24 Nov 15:13:47 15:16:54 66° 293° (WNW) 15:19:44 437.345
KKS-1 24 Nov 15:30:19 15:33:42 22° 291° (WNW) 15:37:04 437.445
O/OREOS (USA 219) 24 Nov 15:36:19 15:40:24 34° 65° (ENE) 15:44:28 437.305
JAS-2 24 Nov 15:37:43 15:44:29 38° 67° (ENE) 15:51:31 435.910
HORYU 2 24 Nov 15:43:04 15:45:24 14° 267° (W) 15:47:45 437.375
PHONESAT 2.4 24 Nov 15:44:44 15:48:27 71° 340° (NNW) 15:52:10 2401.200-2431.200
YUBILEINY 24 Nov 15:50:52 15:55:49 17° 281° (W) 16:00:47 435.215
VERMONT LUNAR 24 Nov 16:03:04 16:06:34 46° 346° (NNW) 16:10:05 437.305
Cubesat XI-IV 24 Nov 16:13:57 16:16:57 15° 64° (ENE) 16:19:57 437.490
AO-7 24 Nov 16:18:34 16:26:14 42° 260° (W) 16:33:59 29.400- 29.500
MOZHAYETS 4 24 Nov 16:22:14 16:26:25 32° 97° (E) 16:30:33
RS-15 24 Nov 16:22:57 16:33:59 85° 299° (WNW) 16:44:59 29.354- 29.394
CUTE-I 24 Nov 16:53:38 16:58:29 36° 70° (ENE) 17:03:21 437.470
O/OREOS (USA 219) 24 Nov 17:16:29 17:19:29 18° 260° (W) 17:22:29 437.305
JAS-2 24 Nov 17:22:17 17:29:15 42° 263° (W) 17:36:37 435.910
PHONESAT 2.4 24 Nov 17:24:08 17:27:35 35° 357° (N) 17:31:01 2401.200-2431.200
VERMONT LUNAR 24 Nov 17:42:09 17:45:30 34° 4° (N) 17:48:51 437.305
GONETS M04 24 Nov 17:47:13 17:52:14 16° 65° (ENE) 17:57:12
Cubesat XI-IV 24 Nov 17:51:10 17:56:28 62° 259° (WSW) 18:01:48 437.490
STRAND 1 24 Nov 17:52:12 17:55:51 20° 94° (E) 17:59:28 437.568
CUBESAT XI-V 24 Nov 17:59:24 18:03:09 24° 95° (E) 18:06:52 437.345
MOZHAYETS 4 24 Nov 17:59:54 18:03:24 21° 291° (WNW) 18:06:54
PRISM 24 Nov 18:09:00 18:13:16 89° 280° (W) 18:17:28 437.425
HO-68 24 Nov 18:31:16 18:35:33 17° 58° (ENE) 18:39:50 435.675
CUTE-I 24 Nov 18:34:17 18:38:34 24° 264° (W) 18:42:53 437.470
RS-15 24 Nov 18:39:46 18:48:07 24° 324° (NW) 18:56:34 29.354- 29.394
PCSat 24 Nov 18:51:11 18:55:52 31° 108° (ESE) 19:00:35 145.827
AIST 1 24 Nov 19:02:40 19:06:29 30° 90° (E) 19:10:20
PHONESAT 2.4 24 Nov 19:03:12 19:06:49 47° 14° (NNE) 19:10:25 2401.200-2431.200
CANX-2 24 Nov 19:11:01 19:13:35 16° 68° (ENE) 19:16:09 2200.000
BRITE-PL 24 Nov 19:12:01 19:15:26 19° 69° (ENE) 19:18:41 437.365/2234.400
COMPASS 1 24 Nov 19:19:59 19:21:56 13° 67° (ENE) 19:23:52 437.405
VERMONT LUNAR 24 Nov 19:20:41 19:24:18 70° 20° (NNE) 19:27:55 437.305
STRAND 1 24 Nov 19:30:23 19:35:09 40° 289° (WNW) 19:39:52 437.568
BEESAT 3 24 Nov 19:35:06 19:38:48 34° 113° (ESE) 19:42:35 437.485
CUBESAT XI-V 24 Nov 19:36:34 19:40:31 28° 290° (WNW) 19:44:27 437.345
GONETS M04 24 Nov 19:41:21 19:50:14 90° 264° (W) 19:59:00
CUTE 1.7 & AOD 2 24 Nov 19:44:25 19:48:15 35° 73° (ENE) 19:52:07 437.475
BEESAT 2 24 Nov 19:49:04 19:52:58 45° 115° (ESE) 19:56:57 435.950
DOVE 4 24 Nov 19:53:18 19:57:05 25° 71° (ENE) 20:00:42 437.250
UKube-1 24 Nov 20:04:52 20:07:54 19° 68° (ENE) 20:10:56 .
HO-68 24 Nov 20:15:09 20:22:21 83° 255° (WSW) 20:29:35 435.675
Oscar 11 24 Nov 20:16:36 20:20:13 27° 71° (ENE) 20:23:51 145.826/435.025
AIST 2 24 Nov 20:16:53 20:20:52 44° 114° (ESE) 20:24:56 435.215
SEEDS 24 Nov 20:18:57 20:23:07 83° 77° (ENE) 20:27:20 437.485
CUBEBUG 2 24 Nov 20:24:37 20:27:38 19° 69° (ENE) 20:30:37 437.445
GOMX 1 24 Nov 20:27:22 20:32:18 83° 77° (ENE) 20:36:55 467.674
UWE-3 24 Nov 20:28:05 20:30:56 18° 69° (ENE) 20:33:45 435.000/436.395/437.385
PCSat 24 Nov 20:34:25 20:39:11 31° 304° (NW) 20:43:59 145.827
DX 1 24 Nov 20:37:37 20:41:48 46° 73° (ENE) 20:46:00 434.975-435.025
AAUSAT CUBESAT 2 24 Nov 20:38:47 20:42:55 77° 258° (WSW) 20:47:05 437.432
CINEMA 3 24 Nov 20:39:22 20:43:39 47° 74° (ENE) 20:47:47 145.822/145.860
AIST 1 24 Nov 20:41:05 20:44:10 19° 285° (WNW) 20:47:16
PHONESAT 2.4 24 Nov 20:42:04 20:45:39 47° 209° (SSW) 20:49:12 2401.200-2431.200
CANX-2 24 Nov 20:45:21 20:49:12 35° 262° (W) 20:53:06 2200.000
BRITE-PL 24 Nov 20:48:46 20:53:40 42° 261° (W) 20:58:14 437.365/2234.400
DELFI C3 24 Nov 20:51:22 20:55:21 58° 75° (ENE) 20:59:22 145.870
COMPASS 1 24 Nov 20:53:18 20:57:15 43° 261° (W) 21:01:15 437.405
50 SAT 24 Nov 20:59:02 21:01:30 16° 68° (ENE) 21:03:58 437.505
VERMONT LUNAR 24 Nov 20:59:37 21:02:35 24° 215° (SW) 21:05:32 437.305
HUMSAT D 24 Nov 21:00:01 21:03:05 20° 70° (ENE) 21:06:08 437.325/437.525
VELOX 1 24 Nov 21:01:45 21:05:24 25° 70° (ENE) 21:09:03 145.980
RS-15 24 Nov 21:03:23 21:06:39 11° 0° (N) 21:09:55 29.354- 29.394
ZACube-1 24 Nov 21:05:06 21:09:05 40° 74° (ENE) 21:13:00 437.345
BEESAT 3 24 Nov 21:14:10 21:17:07 19° 309° (NW) 21:20:07 437.485
CUTE 1.7 & AOD 2 24 Nov 21:21:49 21:24:17 15° 267° (W) 21:26:45 437.475
AISAT 24 Nov 21:26:21 21:30:40 48° 74° (ENE) 21:34:59 437.250
BEESAT 2 24 Nov 21:29:00 21:31:30 15° 311° (NW) 21:34:02 435.950
DOVE 4 24 Nov 21:30:48 21:34:44 26° 263° (W) 21:38:31 437.250
UKube-1 24 Nov 21:39:54 21:43:48 32° 262° (W) 21:47:44 .
FUNcube-1 24 Nov 21:40:16 21:44:31 73° 259° (WSW) 21:48:41 145.935
GONETS M04 24 Nov 21:41:21 21:45:41 15° 282° (WNW) 21:50:01
TIGRISAT 24 Nov 21:42:18 21:45:16 17° 95° (E) 21:48:16 435.000
CUBEBUG 1 24 Nov 21:45:12 21:48:53 26° 70° (ENE) 21:52:34 437.445
NANOSAT C BR1 24 Nov 21:50:30 21:52:34 13° 93° (E) 21:54:38 145.865
Oscar 11 24 Nov 21:53:04 21:56:20 21° 265° (W) 21:59:37 145.826/435.025
UNISAT 6 24 Nov 21:54:35 21:58:15 25° 96° (E) 22:01:58 437.425
AIST 2 24 Nov 21:57:00 21:59:43 17° 311° (NW) 22:02:29 435.215
QB50P1 24 Nov 21:59:31 22:02:22 18° 95° (E) 22:05:12 145.935-145.965
CUBEBUG 2 24 Nov 22:00:22 22:04:09 30° 263° (W) 22:07:52 437.445
UWE-3 24 Nov 22:03:25 22:07:15 31° 262° (W) 22:11:01 435.000/436.395/437.385
HO-68 24 Nov 22:08:53 22:10:53 11° 270° (W) 22:12:54 435.675
DX 1 24 Nov 22:16:13 22:18:14 13° 267° (W) 22:20:16 434.975-435.025
BUGSAT 1 24 Nov 22:17:07 22:20:20 22° 96° (E) 22:23:30 437.445
CINEMA 3 24 Nov 22:19:14 22:21:02 12° 267° (W) 22:22:49 145.822/145.860
ANTELSAT 24 Nov 22:22:36 22:26:58 53° 100° (E) 22:31:25 437.575/2403.000
POPSAT HIP 1 24 Nov 22:23:18 22:27:08 34° 98° (E) 22:30:57 437.405
ESTCUBE 1 24 Nov 22:30:52 22:35:25 88° 257° (WSW) 22:40:00 437.505/2401.250
50 SAT 24 Nov 22:32:54 22:36:32 32° 262° (W) 22:40:11 437.505
HUMSAT D 24 Nov 22:35:15 22:38:44 26° 263° (W) 22:42:13 437.325/437.525
VELOX 1 24 Nov 22:38:10 22:41:52 25° 264° (W) 22:45:35 145.980
ZACube-1 24 Nov 22:43:34 22:45:36 13° 267° (W) 22:47:38 437.345
POLYITAN 1 24 Nov 22:55:42 22:59:56 89° 102° (ESE) 23:04:10 437.675
QB50P2 24 Nov 22:58:17 23:02:32 85° 282° (WNW) 23:06:45 145.880/145.840
DUCHIFAT 1 24 Nov 23:05:16 23:09:28 71° 284° (WNW) 23:13:38 145.980
AISAT 24 Nov 23:05:32 23:07:31 13° 267° (W) 23:09:31 437.250
TISAT 1 24 Nov 23:08:25 23:12:36 56° 75° (ENE) 23:16:47 437.305
SPROUT 24 Nov 23:14:02 23:18:16 55° 75° (ENE) 23:22:29 437.525
RS-15 24 Nov 23:16:34 23:25:13 25° 37° (NE) 23:34:04 29.354- 29.394
AUBIESAT-1 24 Nov 23:17:11 23:19:50 17° 61° (ENE) 23:22:37 437.475
TIGRISAT 24 Nov 23:18:03 23:22:04 35° 288° (WNW) 23:26:11 435.000
ISS 24 Nov 23:18:57 23:22:14 88° 318° (NW) 23:25:31 145.825
M-CUBED/EXP-1 PRIME 24 Nov 23:21:04 23:24:03 21° 63° (ENE) 23:27:14 437.505
CUBEBUG 1 24 Nov 23:21:34 23:25:10 24° 264° (W) 23:28:46 437.445
ITUPSAT 1 24 Nov 23:21:47 23:23:10 11° 63° (ENE) 23:24:34 437.325
NANOSAT C BR1 24 Nov 23:24:40 23:28:37 40° 287° (WNW) 23:32:33 145.865
UNISAT 6 24 Nov 23:31:17 23:34:56 25° 290° (WNW) 23:38:39 437.425
SWISSCUBE 24 Nov 23:31:33 23:34:29 16° 66° (ENE) 23:37:25 437.505
QB50P1 24 Nov 23:34:34 23:38:17 31° 288° (WNW) 23:42:00 145.935-145.965
CUSAT 1 24 Nov 23:36:13 23:40:53 51° 81° (E) 23:47:05 437.405
BUGSAT 1 24 Nov 23:52:31 23:55:44 23° 290° (WNW) 23:58:54 437.445
DANDE 24 Nov 23:56:14 00:00:49 68° 82° (E) 00:07:04 436.750
POPSAT HIP 1 25 Nov 00:00:04 00:02:45 17° 292° (WNW) 00:05:26 437.405
ANTELSAT 25 Nov 00:01:23 00:03:19 13° 294° (WNW) 00:05:17 437.575/2403.000
BEESAT 25 Nov 00:01:28 00:05:38 31° 70° (ENE) 00:09:50 436.000
JUGNU 25 Nov 00:11:02 00:14:29 16° 172° (S) 00:17:57 437.505
SRMSAT 25 Nov 00:21:10 00:22:44 11° 165° (SSE) 00:24:18 437.500
KKS-1 25 Nov 00:49:32 00:52:37 19° 68° (ENE) 00:55:43 437.445
AUBIESAT-1 25 Nov 00:50:54 00:54:29 34° 259° (WSW) 00:58:23 437.475
SPROUT 25 Nov 00:54:13 00:54:38 10° 268° (W) 00:55:03 437.525
YUBILEINY 25 Nov 00:55:28 01:00:51 18° 80° (E) 01:06:11 435.215
MaSat-1 25 Nov 00:55:29 00:57:49 75° 66° (ENE) 01:00:15 437.345
M-CUBED/EXP-1 PRIME 25 Nov 00:55:33 00:58:54 27° 260° (W) 01:02:33 437.505
ITUPSAT 1 25 Nov 00:55:38 01:00:25 70° 258° (WSW) 01:05:14 437.325
ISS 25 Nov 00:57:51 00:59:18 12° 334° (NNW) 01:00:45 145.825
SWISSCUBE 25 Nov 01:07:19 01:11:55 47° 260° (W) 01:16:34 437.505
Oscar 19 25 Nov 01:11:14 01:16:15 51° 100° (E) 01:21:16 437.125/150
CUSAT 1 25 Nov 01:20:48 01:23:58 16° 267° (W) 01:27:37 437.405
RS-15 25 Nov 01:28:06 01:39:27 83° 61° (ENE) 01:51:19 29.354- 29.394
BEESAT 25 Nov 01:39:40 01:43:27 23° 264° (W) 01:47:16 436.000
DANDE 25 Nov 01:42:42 01:44:17 11° 268° (W) 01:45:59 436.750
STARS 25 Nov 01:46:29 01:50:47 55° 74° (ENE) 01:55:05 437.465
JUGNU 25 Nov 01:58:56 02:02:47 18° 183° (S) 02:06:39 437.505
ITAMSAT 1 25 Nov 02:01:33 02:06:40 58° 101° (E) 02:11:44 435.822/435.867
HORYU 2 25 Nov 02:01:51 02:02:57 11° 92° (E) 02:04:03 437.375
SRMSAT 25 Nov 02:07:23 02:11:10 17° 175° (S) 02:14:57 437.500
KKS-1 25 Nov 02:24:57 02:29:00 34° 262° (W) 02:33:03 437.445
Gurwin Techsat 1B 25 Nov 02:26:42 02:31:57 58° 101° (E) 02:37:09 435.225
AO-7 25 Nov 02:34:00 02:37:32 13° 91° (E) 02:41:03 29.400- 29.500
YUBILEINY 25 Nov 02:47:42 02:56:31 79° 277° (W) 03:05:21 435.215
SO-50 25 Nov 02:49:20 02:53:04 27° 111° (ESE) 02:56:54 436.795
Oscar 19 25 Nov 02:51:53 02:55:09 17° 295° (WNW) 02:58:25 437.125/150
MOZHAYETS 4 25 Nov 03:21:52 03:25:20 22° 69° (ENE) 03:28:49
STARS 25 Nov 03:26:32 03:27:33 11° 268° (W) 03:28:34 437.465
HORYU 2 25 Nov 03:35:31 03:39:55 57° 286° (WNW) 03:44:20 437.375
RS-15 25 Nov 03:42:34 03:50:34 23° 258° (WSW) 03:58:50 29.354- 29.394
ITAMSAT 1 25 Nov 03:42:46 03:45:37 15° 296° (WNW) 03:48:28 435.822/435.867
PCSat 25 Nov 03:43:08 03:46:08 15° 48° (NE) 03:49:07 145.827
JUGNU 25 Nov 03:48:34 03:51:04 13° 193° (SSW) 03:53:34 437.505
SRMSAT 25 Nov 03:55:53 03:59:38 17° 185° (S) 04:03:23 437.500
BEESAT 3 25 Nov 04:00:12 04:01:09 11° 46° (NE) 04:02:06 437.485
Gurwin Techsat 1B 25 Nov 04:08:19 04:11:22 16° 296° (WNW) 04:14:26 435.225
BEESAT 2 25 Nov 04:13:43 04:15:49 13° 48° (NE) 04:17:55 435.950
AO-7 25 Nov 04:22:52 04:31:17 83° 107° (ESE) 04:39:39 29.400- 29.500
SO-50 25 Nov 04:29:37 04:33:30 28° 308° (NW) 04:37:30 436.795
JAS-2 25 Nov 04:36:37 04:43:02 39° 95° (E) 04:48:43 435.910
AIST 2 25 Nov 04:43:13 04:45:29 14° 48° (NE) 04:47:44 435.215
YUBILEINY 25 Nov 04:50:56 04:54:43 13° 296° (WNW) 04:58:32 435.215
PRISM 25 Nov 04:56:49 05:00:47 43° 73° (ENE) 05:04:48 437.425
MOZHAYETS 4 25 Nov 04:58:17 05:02:20 31° 263° (W) 05:06:26
CUBESAT XI-V 25 Nov 05:00:37 05:03:42 18° 67° (ENE) 05:06:48 437.345
STRAND 1 25 Nov 05:05:11 05:09:01 22° 67° (ENE) 05:12:52 437.568
CUTE-I 25 Nov 05:14:55 05:18:31 18° 94° (E) 05:22:05 437.470
PCSat 25 Nov 05:24:43 05:30:08 77° 246° (WSW) 05:35:31 145.827
BEESAT 3 25 Nov 05:35:42 05:39:53 76° 243° (WSW) 05:44:00 437.485
O/OREOS (USA 219) 25 Nov 05:44:54 05:49:23 76° 108° (ESE) 05:53:51 437.305
SRMSAT 25 Nov 05:46:47 05:48:03 11° 195° (SSW) 05:49:19 437.500
ISS 25 Nov 05:50:19 05:53:09 26° 34° (NE) 05:55:59 145.825
BEESAT 2 25 Nov 05:50:20 05:54:28 57° 244° (WSW) 05:58:31 435.950
Cubesat XI-IV 25 Nov 06:11:48 06:17:07 71° 102° (ESE) 06:22:24 437.490
AO-7 25 Nov 06:17:26 06:23:03 21° 304° (NW) 06:28:42 29.400- 29.500
AIST 2 25 Nov 06:20:15 06:24:28 57° 244° (WSW) 06:28:36 435.215
JAS-2 25 Nov 06:21:47 06:27:51 32° 295° (WNW) 06:33:19 435.910
PRISM 25 Nov 06:34:40 06:36:31 13° 267° (W) 06:38:23 437.425
CUBESAT XI-V 25 Nov 06:36:21 06:40:47 41° 262° (W) 06:45:15 437.345
STRAND 1 25 Nov 06:43:07 06:47:54 39° 261° (W) 06:52:43 437.568
GONETS M04 25 Nov 06:44:45 06:50:41 21° 81° (E) 06:56:38
AIST 1 25 Nov 06:50:16 06:54:40 80° 83° (E) 06:58:59
CUTE-I 25 Nov 06:53:42 06:58:46 46° 288° (WNW) 07:03:48 437.470
ISS 25 Nov 07:26:56 07:29:44 26° 229° (SW) 07:32:32 145.825
HO-68 25 Nov 07:47:44 07:53:04 22° 94° (E) 07:58:21 435.675
Cubesat XI-IV 25 Nov 07:54:10 07:56:33 13° 298° (WNW) 07:58:55 437.490
SEEDS 25 Nov 08:08:04 08:10:59 18° 94° (E) 08:13:55 437.485
AAUSAT CUBESAT 2 25 Nov 08:26:26 08:29:43 22° 95° (E) 08:32:59 437.432
GOMX 1 25 Nov 08:33:01 08:36:34 27° 97° (E) 08:40:11 467.674
CANX-2 25 Nov 08:33:49 08:37:58 47° 99° (E) 08:42:07 2200.000
GONETS M04 25 Nov 08:37:45 08:46:30 72° 278° (W) 08:55:22
DELFI C3 25 Nov 08:38:06 08:39:11 11° 92° (E) 08:40:17 145.870
CINEMA 3 25 Nov 08:39:02 08:41:09 13° 94° (E) 08:43:18 145.822/145.860
COMPASS 1 25 Nov 08:40:34 08:44:30 36° 98° (E) 08:48:26 437.405
TIGRISAT 25 Nov 08:41:07 08:41:43 10° 65° (ENE) 08:42:18 435.000
UNISAT 6 25 Nov 08:52:19 08:54:44 15° 67° (ENE) 08:57:09 437.425
BRITE-PL 25 Nov 08:56:43 09:00:52 77° 102° (ESE) 09:05:05 437.365/2234.400
BUGSAT 1 25 Nov 09:06:16 09:07:54 12° 66° (ENE) 09:09:32 437.445
CUTE 1.7 & AOD 2 25 Nov 09:08:31 09:12:48 70° 284° (WNW) 09:17:04 437.475
POPSAT HIP 1 25 Nov 09:14:20 09:17:16 18° 68° (ENE) 09:20:12 437.405
ANTELSAT 25 Nov 09:19:27 09:23:12 31° 72° (ENE) 09:26:57 437.575/2403.000
AISAT 25 Nov 09:23:07 09:24:47 12° 92° (E) 09:26:27 437.250
